MOHAMMED VI-B

导读

MOHAMMED VI-B(穆罕默德六世-B)是摩洛哥(MA)于2018年11月21日发射的光学遥感卫星,以摩洛哥国王穆罕默德六世命名。该卫星属于摩洛哥对地观测计划,配备高分辨率光学载荷,主要用于国土测绘、资源监测、城市规划、灾害应急管理与边境监控,助力摩洛哥提升自主空间信息获取能力,服务国家基础设施建设与可持续发展,也标志着摩洛哥航天遥感能力迈上新台阶。

基本信息
目录编号:
43717
目录名称:
MOHAMMED VI-B
国际标识:
2018-095A
轨道中心:
EARTH
卫星名称:
MOHAMMED VI-B
卫星全名:
--
卫星状态:
在轨 (已飞行2769 天)
发射日期:
2018-11-21 UTC
国别 :
(MA)
星等 :
--
轨道信息
数据来源 国际轨道数据 AOE轨道数据
星历时间 2026-06-21T12:09:55+0800
6小时前
查看轨道信息
2026-06-17T01:00:00+0800
4天前
查看轨道信息
半长轴 7016.558km 7016.573km
偏心率 0.0001393 0.0000899
轨道倾角 97.955° 97.956°
近地点辐角 100.627° 101.604°
升交点赤经 244.444° 240.042°
平近点角 259.509° 288.527°
近地点 637.443km 637.805km
远地点 639.399km 639.067km
周期 97.487分钟 97.487分钟
每日圈数 14.771229 14.771181
详细信息
使用方式:
暂无
2D轨道图
3D轨道图
轨道高度分析图
轨道倾角分析图
轨道综合分析图
查看轨道综合分析图